AFL694 UEEE-UIII

Flight info

Callsign AFL694
Flight time N/A
Altitude 38000
Route LEPRI6E LEPRI B155 OLDEP W269 GARAK W225 KA KA4A
Aircraft A20N/M-SDE2E3FGHIRWXY/LB1

Departure

Time 2026-04-15 19:07
Airport Platon Oyunsky Yakutsk International Airport (UEEE)

Arrival

Time N/A
Airport Irkutsk International Airport (UIII)
Time Latitude Longitude Altitude Speed Heading
2026-04-15 18:46 62.09470 129.76255 329 ft 0 kts 116°
2026-04-15 19:00 62.09476 129.76232 327 ft 3 kts 122°
2026-04-15 19:00 62.09490 129.76196 328 ft 3 kts 149°
2026-04-15 19:00 62.09502 129.76188 326 ft 0 kts 194°
2026-04-15 19:03 62.09486 129.76175 328 ft 8 kts 201°
2026-04-15 19:03 62.09399 129.76066 327 ft 20 kts 209°
2026-04-15 19:04 62.09243 129.75878 329 ft 31 kts 209°
2026-04-15 19:04 62.09040 129.75612 329 ft 37 kts 212°
2026-04-15 19:04 62.08828 129.75372 331 ft 35 kts 201°
2026-04-15 19:04 62.08665 129.75626 332 ft 33 kts 120°
2026-04-15 19:05 62.08515 129.75672 330 ft 27 kts 213°
2026-04-15 19:05 62.08346 129.75455 330 ft 30 kts 212°
2026-04-15 19:05 62.08238 129.75497 330 ft 15 kts 116°
2026-04-15 19:05 62.08213 129.75713 333 ft 15 kts 49°
2026-04-15 19:06 62.08255 129.75780 330 ft 0 kts 36°
2026-04-15 19:06 62.08275 129.75811 330 ft 23 kts 36°
2026-04-15 19:06 62.08613 129.76347 330 ft 102 kts 36°
2026-04-15 19:07 62.09389 129.77585 397 ft 168 kts 36°
2026-04-15 19:07 62.10403 129.79205 907 ft 199 kts 36°
2026-04-15 19:07 62.11597 129.81116 1436 ft 217 kts 37°
2026-04-15 19:07 62.12734 129.82930 1858 ft 193 kts 38°
2026-04-15 19:08 62.13858 129.84735 2143 ft 214 kts 38°
2026-04-15 19:08 62.15121 129.86772 2807 ft 239 kts 37°
2026-04-15 19:08 62.16490 129.88979 3731 ft 251 kts 37°
2026-04-15 19:08 62.17894 129.91245 4834 ft 256 kts 36°
2026-04-15 19:09 62.19403 129.93335 5881 ft 261 kts 20°
2026-04-15 19:09 62.21192 129.93895 6916 ft 263 kts 353°
2026-04-15 19:09 62.22912 129.92598 7900 ft 267 kts 325°
2026-04-15 19:09 62.24235 129.89753 8893 ft 272 kts 306°
2026-04-15 19:10 62.25323 129.86387 9912 ft 278 kts 302°
2026-04-15 19:10 62.26393 129.82906 10660 ft 292 kts 303°
2026-04-15 19:10 62.27589 129.79165 11063 ft 315 kts 304°
2026-04-15 19:10 62.28916 129.75215 11590 ft 332 kts 305°
2026-04-15 19:11 62.30248 129.71111 12458 ft 336 kts 297°
2026-04-15 19:11 62.30951 129.66327 13332 ft 338 kts 274°
2026-04-15 19:11 62.30765 129.61303 14197 ft 339 kts 252°
2026-04-15 19:11 62.29775 129.56758 15079 ft 338 kts 238°
2026-04-15 19:12 62.28520 129.52446 15973 ft 339 kts 236°
2026-04-15 19:12 62.27180 129.48339 16819 ft 340 kts 229°
2026-04-15 19:12 62.25486 129.44769 17672 ft 342 kts 218°
2026-04-15 19:12 62.23505 129.41967 18498 ft 345 kts 210°
2026-04-15 19:13 62.21360 129.39411 18800 ft 360 kts 210°
2026-04-15 19:13 62.19122 129.36695 18969 ft 378 kts 210°
2026-04-15 19:13 62.16789 129.33843 19145 ft 393 kts 210°
2026-04-15 19:13 62.14414 129.30833 19628 ft 398 kts 214°
2026-04-15 19:14 62.12203 129.27295 20287 ft 398 kts 221°
2026-04-15 19:14 62.10202 129.23172 20913 ft 400 kts 228°
2026-04-15 19:14 62.08424 129.18567 21532 ft 402 kts 232°
2026-04-15 19:14 62.06705 129.13936 22132 ft 404 kts 232°
2026-04-15 19:15 62.04932 129.09187 22740 ft 406 kts 232°
2026-04-15 19:15 62.03179 129.04527 23338 ft 408 kts 232°
2026-04-15 19:15 62.01390 128.99795 23867 ft 410 kts 232°
2026-04-15 19:15 61.99590 128.95045 24272 ft 414 kts 231°
2026-04-15 19:16 61.97847 128.90157 24673 ft 417 kts 236°
2026-04-15 19:16 61.96347 128.84856 25080 ft 420 kts 242°
2026-04-15 19:16 61.95124 128.79188 25470 ft 424 kts 248°
2026-04-15 19:16 61.94172 128.73234 25808 ft 427 kts 251°
2026-04-15 19:17 61.93270 128.67194 26170 ft 430 kts 251°
2026-04-15 19:17 61.92348 128.61110 26486 ft 434 kts 250°
2026-04-15 19:17 61.91416 128.55026 26775 ft 436 kts 250°
2026-04-15 19:17 61.90467 128.48878 27041 ft 439 kts 250°
2026-04-15 19:18 61.89510 128.42713 27272 ft 441 kts 250°
2026-04-15 19:18 61.88553 128.36569 27476 ft 443 kts 250°
2026-04-15 19:18 61.86654 128.24432 29247 ft 419 kts 250°
2026-04-15 19:19 61.85745 128.18642 30125 ft 413 kts 249°
2026-04-15 19:19 61.84823 128.12814 30426 ft 417 kts 249°
2026-04-15 19:19 61.83898 128.06986 30729 ft 420 kts 249°
2026-04-15 19:19 61.82963 128.01115 31041 ft 423 kts 249°
2026-04-15 19:20 61.82020 127.95211 31389 ft 424 kts 249°
2026-04-15 19:20 61.81072 127.89286 31776 ft 425 kts 249°
2026-04-15 19:20 61.80122 127.83366 32168 ft 425 kts 249°
2026-04-15 19:20 61.79170 127.77454 32542 ft 426 kts 248°
2026-04-15 19:21 61.78213 127.71535 32924 ft 426 kts 248°
2026-04-15 19:21 61.77251 127.65604 33289 ft 427 kts 248°
2026-04-15 19:21 61.76286 127.59671 33659 ft 427 kts 248°
2026-04-15 19:21 61.75319 127.53748 33969 ft 429 kts 248°
2026-04-15 19:22 61.73346 127.41743 34133 ft 441 kts 248°
2026-04-15 19:22 61.71316 127.29455 34360 ft 446 kts 248°
2026-04-15 19:23 61.70287 127.23252 34523 ft 447 kts 248°
2026-04-15 19:23 61.69267 127.17124 35077 ft 437 kts 248°
2026-04-15 19:23 61.68271 127.11152 35636 ft 431 kts 248°
2026-04-15 19:23 61.67272 127.05187 35926 ft 431 kts 248°
2026-04-15 19:24 61.66279 126.99228 36160 ft 432 kts 248°
2026-04-15 19:24 61.65288 126.93229 36408 ft 432 kts 248°
2026-04-15 19:24 61.64305 126.87254 36643 ft 433 kts 248°
2026-04-15 19:24 61.63318 126.81265 36882 ft 433 kts 248°
2026-04-15 19:25 61.62325 126.75275 37115 ft 433 kts 248°
2026-04-15 19:25 61.61332 126.69309 37346 ft 433 kts 248°
2026-04-15 19:25 61.60334 126.63346 37572 ft 433 kts 248°
2026-04-15 19:25 61.59331 126.57371 37789 ft 434 kts 248°
2026-04-15 19:26 61.58324 126.51401 38014 ft 434 kts 248°
2026-04-15 19:26 61.57312 126.45414 38091 ft 434 kts 248°
2026-04-15 19:26 61.55289 126.33513 38088 ft 432 kts 248°
2026-04-15 19:27 61.53274 126.21727 38087 ft 432 kts 248°
2026-04-15 19:27 61.51238 126.09891 38086 ft 432 kts 248°
2026-04-15 19:28 61.49175 125.97982 38074 ft 439 kts 247°
2026-04-15 19:28 61.47059 125.85842 38078 ft 445 kts 247°
2026-04-15 19:29 61.44929 125.73688 38078 ft 445 kts 247°
2026-04-15 19:29 61.42802 125.61637 38073 ft 445 kts 247°
2026-04-15 19:30 61.40651 125.49523 38079 ft 445 kts 247°
2026-04-15 19:30 61.38490 125.37433 38076 ft 444 kts 247°
2026-04-15 19:31 61.36329 125.25415 38072 ft 433 kts 247°
2026-04-15 19:31 61.34224 125.13779 38078 ft 430 kts 246°
2026-04-15 19:32 61.32109 125.02178 38064 ft 431 kts 246°
2026-04-15 19:32 61.29972 124.90514 38058 ft 431 kts 246°
2026-04-15 19:33 61.27841 124.78948 38060 ft 417 kts 246°
2026-04-15 19:33 61.26827 124.73452 38058 ft 401 kts 246°
2026-04-15 19:33 61.25836 124.68106 38064 ft 394 kts 246°
2026-04-15 19:34 61.23823 124.57336 38060 ft 403 kts 246°
2026-04-15 19:34 61.21845 124.46773 38056 ft 384 kts 246°
2026-04-15 19:35 61.19898 124.36448 38055 ft 386 kts 245°
2026-04-15 19:35 61.17928 124.26059 38053 ft 386 kts 245°
2026-04-15 19:36 61.15987 124.15859 38055 ft 378 kts 245°
2026-04-15 19:36 61.14045 124.05716 38054 ft 380 kts 245°
2026-04-15 19:37 61.12087 123.95544 38051 ft 380 kts 245°
2026-04-15 19:37 61.11138 123.90629 38049 ft 0 kts 245°
2026-04-15 19:38 61.10888 123.89499 38185 ft 374 kts 243°
2026-04-15 19:38 61.09822 123.84633 38638 ft 365 kts 243°
2026-04-15 19:39 61.08753 123.79769 38261 ft 381 kts 243°
2026-04-15 19:39 61.07694 123.74615 37899 ft 395 kts 247°
2026-04-15 19:39 61.06767 123.69254 38047 ft 398 kts 248°
2026-04-15 19:39 61.05830 123.63853 38043 ft 403 kts 247°
2026-04-15 19:40 61.03817 123.52903 38044 ft 414 kts 246°
2026-04-15 19:40 61.01665 123.41707 38045 ft 425 kts 245°
2026-04-15 19:41 60.99441 123.30298 38046 ft 433 kts 245°
2026-04-15 19:41 60.97190 123.18807 38045 ft 432 kts 245°
2026-04-15 19:42 60.94927 123.07328 38048 ft 432 kts 245°
2026-04-15 19:42 60.92659 122.95883 38045 ft 432 kts 245°
2026-04-15 19:43 60.90397 122.84536 38042 ft 432 kts 245°
2026-04-15 19:43 60.88104 122.73102 38048 ft 432 kts 245°
2026-04-15 19:44 60.86192 122.63609 38045 ft 432 kts 245°
2026-04-15 19:44 60.83889 122.52241 38053 ft 432 kts 245°
2026-04-15 19:45 60.81572 122.40866 38046 ft 432 kts 245°
2026-04-15 19:45 60.79244 122.29500 38050 ft 432 kts 245°
2026-04-15 19:46 60.76910 122.18171 38048 ft 432 kts 245°
2026-04-15 19:46 60.74577 122.06910 38052 ft 432 kts 245°
2026-04-15 19:47 60.72223 121.95604 38049 ft 432 kts 244°
2026-04-15 19:47 60.69865 121.84343 38051 ft 432 kts 244°
2026-04-15 19:48 60.67494 121.73085 38051 ft 432 kts 244°
2026-04-15 19:48 60.65111 121.61828 38050 ft 432 kts 244°
2026-04-15 19:49 60.62728 121.50632 38053 ft 432 kts 244°
2026-04-15 19:49 60.60331 121.39433 38057 ft 432 kts 244°
2026-04-15 19:50 60.57882 121.28267 38055 ft 431 kts 242°
2026-04-15 19:50 60.55313 121.17221 38059 ft 432 kts 243°
2026-04-15 19:51 60.52775 121.06172 38057 ft 432 kts 243°
2026-04-15 19:51 60.50208 120.95133 38063 ft 432 kts 243°
2026-04-15 19:52 60.47629 120.84129 38066 ft 432 kts 243°
2026-04-15 19:52 60.45036 120.73125 38063 ft 432 kts 242°
2026-04-15 19:53 60.42442 120.62171 38069 ft 432 kts 242°
2026-04-15 19:53 60.39850 120.51283 38071 ft 431 kts 242°
2026-04-15 19:54 60.36710 120.41024 38083 ft 430 kts 232°
2026-04-15 19:54 60.33182 120.31265 38078 ft 430 kts 233°
2026-04-15 19:55 60.29693 120.21477 38056 ft 430 kts 233°
2026-04-15 19:55 60.26212 120.11670 38066 ft 429 kts 233°
2026-04-15 19:56 60.22725 120.01878 38065 ft 430 kts 233°
2026-04-15 19:56 60.19242 119.92141 38072 ft 429 kts 233°
2026-04-15 19:57 60.15740 119.82393 38082 ft 430 kts 233°
2026-04-15 19:57 60.12256 119.72735 38084 ft 429 kts 233°
2026-04-15 19:58 60.08742 119.63033 38081 ft 429 kts 233°
2026-04-15 19:58 60.05223 119.53361 38081 ft 429 kts 233°
2026-04-15 19:59 60.01700 119.43717 38098 ft 429 kts 232°
2026-04-15 19:59 59.98189 119.34159 38089 ft 429 kts 232°
2026-04-15 20:00 59.94624 119.24508 38087 ft 429 kts 232°
2026-04-15 20:00 59.91104 119.15019 38093 ft 428 kts 232°
2026-04-15 20:01 59.87547 119.05467 38096 ft 428 kts 232°
2026-04-15 20:01 59.83996 118.95971 38103 ft 428 kts 232°
2026-04-15 20:02 59.80434 118.86484 38097 ft 428 kts 232°
2026-04-15 20:02 59.76861 118.77009 38104 ft 428 kts 232°
2026-04-15 20:03 59.73288 118.67569 38102 ft 428 kts 232°
2026-04-15 20:03 59.69700 118.58128 38113 ft 429 kts 232°
2026-04-15 20:04 59.66105 118.48706 38111 ft 429 kts 232°
2026-04-15 20:04 59.62493 118.39279 38117 ft 429 kts 232°
2026-04-15 20:05 59.58887 118.29906 38116 ft 429 kts 232°
2026-04-15 20:05 59.55267 118.20532 38121 ft 429 kts 232°
2026-04-15 20:06 59.51667 118.11247 38129 ft 429 kts 232°
2026-04-15 20:06 59.48026 118.01894 38131 ft 429 kts 232°
2026-04-15 20:07 59.44389 117.92588 38140 ft 429 kts 232°
2026-04-15 20:07 59.40745 117.83303 38145 ft 429 kts 232°
2026-04-15 20:08 59.37088 117.74020 38150 ft 430 kts 231°
2026-04-15 20:08 59.33442 117.64803 38148 ft 429 kts 231°
2026-04-15 20:09 59.29779 117.55577 38151 ft 429 kts 231°
2026-04-15 20:09 59.26098 117.46342 38160 ft 430 kts 231°
2026-04-15 20:10 59.22424 117.37162 38163 ft 429 kts 231°
2026-04-15 20:10 59.18728 117.27964 38173 ft 430 kts 231°
2026-04-15 20:11 59.15035 117.18807 38177 ft 430 kts 231°
2026-04-15 20:11 59.11331 117.09660 38175 ft 430 kts 231°
2026-04-15 20:12 59.07642 117.00584 38177 ft 429 kts 231°
2026-04-15 20:12 59.03924 116.91474 38176 ft 430 kts 231°
2026-04-15 20:13 59.00205 116.82395 38176 ft 429 kts 231°
2026-04-15 20:13 58.96483 116.73346 38178 ft 429 kts 231°
2026-04-15 20:14 58.92753 116.64312 38181 ft 429 kts 231°
2026-04-15 20:14 58.89023 116.55311 38182 ft 430 kts 231°
2026-04-15 20:15 58.85302 116.46367 38180 ft 429 kts 231°
2026-04-15 20:15 58.81557 116.37398 38193 ft 429 kts 231°
2026-04-15 20:16 58.77803 116.28441 38190 ft 429 kts 231°
2026-04-15 20:16 58.74044 116.19505 38200 ft 429 kts 231°
2026-04-15 20:17 58.70270 116.10564 38197 ft 429 kts 231°
2026-04-15 20:17 58.66503 116.01674 38197 ft 429 kts 231°
2026-04-15 20:18 58.62724 115.92784 38202 ft 429 kts 231°
2026-04-15 20:18 58.58938 115.83913 38206 ft 429 kts 231°
2026-04-15 20:19 58.55172 115.75119 38208 ft 430 kts 230°
2026-04-15 20:19 58.51344 115.66212 38206 ft 430 kts 230°
2026-04-15 20:20 58.48333 115.56784 38205 ft 406 kts 252°
2026-04-15 20:20 58.47818 115.51557 38214 ft 400 kts 266°
2026-04-15 20:20 58.48043 115.46219 38212 ft 409 kts 281°
2026-04-15 20:21 58.49002 115.41039 38210 ft 418 kts 295°
2026-04-15 20:21 58.50629 115.36393 38212 ft 425 kts 309°
2026-04-15 20:21 58.52825 115.32592 38215 ft 429 kts 323°
2026-04-15 20:21 58.55458 115.29894 38219 ft 434 kts 337°
2026-04-15 20:22 58.58405 115.28457 38216 ft 439 kts 351°
2026-04-15 20:22 58.61437 115.28395 38217 ft 443 kts
2026-04-15 20:22 58.64443 115.29713 38216 ft 447 kts 19°
2026-04-15 20:22 58.67244 115.32380 38224 ft 449 kts 33°
2026-04-15 20:23 58.69654 115.36213 38220 ft 450 kts 45°
2026-04-15 20:23 58.71784 115.40623 38222 ft 451 kts 49°
2026-04-15 20:23 58.75892 115.49752 38221 ft 450 kts 49°
2026-04-15 20:24 58.81447 115.64248 38221 ft 450 kts 67°
2026-04-15 20:24 58.97947 116.22548 38191 ft 0 kts 56°
2026-04-15 20:25 58.95804 116.20966 38589 ft 433 kts 202°
2026-04-15 20:25 59.51013 117.08248 38779 ft 421 kts 206°
2026-04-15 20:25 59.48367 117.06181 39126 ft 401 kts 197°
2026-04-15 20:25 59.45712 117.04692 39401 ft 395 kts 207°
2026-04-15 20:26 59.43242 117.02262 39391 ft 398 kts 203°
2026-04-15 20:26 59.40749 116.99914 39201 ft 396 kts 214°
2026-04-15 20:26 59.38642 116.96439 38667 ft 398 kts 229°
2026-04-15 20:26 59.36843 116.92290 38279 ft 402 kts 230°
2026-04-15 20:27 59.35045 116.88015 38186 ft 407 kts 230°
2026-04-15 20:27 59.31472 116.79507 38182 ft 406 kts 230°
2026-04-15 20:28 59.27565 116.71550 38183 ft 406 kts 220°
2026-04-15 20:28 59.23019 116.64965 38186 ft 406 kts 207°
2026-04-15 20:29 59.18565 116.61927 38183 ft 409 kts 198°
2026-04-15 20:29 59.13098 116.58876 38184 ft 409 kts 197°
2026-04-15 20:30 59.07661 116.55835 38184 ft 408 kts 199°
2026-04-15 20:30 59.02443 116.51537 38185 ft 407 kts 207°
2026-04-15 20:31 58.97381 116.46646 38184 ft 407 kts 207°
2026-04-15 20:31 58.92383 116.41493 38191 ft 406 kts 213°
2026-04-15 20:32 58.87765 116.35214 38186 ft 405 kts 217°
2026-04-15 20:32 58.83171 116.28758 38194 ft 405 kts 217°
2026-04-15 20:33 58.78795 116.22021 38194 ft 405 kts 222°
2026-04-15 20:33 58.74626 116.14703 38198 ft 405 kts 223°
2026-04-15 20:34 58.70471 116.07392 38197 ft 405 kts 223°
2026-04-15 20:34 58.66305 116.00062 38197 ft 405 kts 223°
2026-04-15 20:35 58.62159 115.92771 38197 ft 405 kts 223°
2026-04-15 20:35 58.58289 115.84939 38204 ft 405 kts 231°
2026-04-15 20:36 58.54806 115.76427 38206 ft 405 kts 232°
2026-04-15 20:36 58.51345 115.67924 38201 ft 405 kts 232°
2026-04-15 20:37 58.47883 115.59419 38203 ft 405 kts 232°
2026-04-15 20:37 58.44377 115.50949 38205 ft 406 kts 231°
2026-04-15 20:38 58.40850 115.42610 38203 ft 406 kts 231°
2026-04-15 20:38 58.37305 115.34230 38200 ft 406 kts 231°
2026-04-15 20:39 58.33733 115.25882 38190 ft 406 kts 230°
2026-04-15 20:39 58.30034 115.17751 38181 ft 406 kts 229°
2026-04-15 20:40 58.26335 115.09640 38177 ft 407 kts 229°
2026-04-15 20:40 58.22685 115.01411 38179 ft 406 kts 230°
2026-04-15 20:41 58.19055 114.93160 38173 ft 407 kts 230°
2026-04-15 20:41 58.15457 114.84979 38174 ft 407 kts 230°
2026-04-15 20:42 58.11761 114.76761 38177 ft 407 kts 230°
2026-04-15 20:42 58.08087 114.68715 38178 ft 407 kts 230°
2026-04-15 20:43 58.04381 114.60605 38175 ft 412 kts 230°
2026-04-15 20:43 58.00596 114.52242 38174 ft 424 kts 230°
2026-04-15 20:44 57.96713 114.43667 38170 ft 433 kts 230°
2026-04-15 20:44 57.92802 114.35077 38173 ft 431 kts 230°
2026-04-15 20:45 57.88920 114.26582 38178 ft 431 kts 230°
2026-04-15 20:45 57.85081 114.17911 38174 ft 431 kts 233°